Interior, SD (57750)

1:06 AM MST on February 09, 2016 (GMT -0700)
Cactus Flat | | Change Station
CLOSE
Current Station
Personal Weather Station
Location: South Dakota, SD
Elevation: 2530 ft
Nearby Weather Stations

Elev 2530 ft 43.81 °N, 101.89 °W | Updated 2 seconds ago

Overcast
Overcast
32.0 °F
Feels Like 32 °F
N
2.7
Wind Variable Wind from NNW
Gusts 4.9 mph

Today
High -- | Low -- °F
--% Chance of Precip.
Yesterday
High -- | Low -- °F
Precip. -- in
Pressure 30.29 in
Visibility 10.0 miles
Clouds Overcast 6000 ft
Windchill 32 °F
Dew Point 12 °F
Humidity 42%
Rainfall 0.00 in
Snow Depth Not available.
6:55 AM 5:09 PM
New Moon, 1% visible
METAR KPHP 090755Z AUTO 35006KT 10SM OVC060 00/M07 A3024 RMK AO2 SLP256 T00001072
Pressure 30.29 in
Visibility 10.0 miles
Clouds Overcast 6000 ft
Windchill 32 °F
Dew Point 12 °F
Humidity 42%
Rainfall 0.00 in
Snow Depth Not available.
6:55 AM 5:09 PM
New Moon, 1% visible
METAR KPHP 090755Z AUTO 35006KT 10SM OVC060 00/M07 A3024 RMK AO2 SLP256 T00001072

10-Day Weather Forecast

Almanac

Astronomy

Feb. 09, 2016 Rise Set
Actual Time
Civil Twilight
Nautical Twilight
Astronomical Twilight
Moon
Length of Visible Light
Length of Day
Tomorrow will be .
, % of the Moon is Illuminated

Today's Extremes

State Highs State Lows

Community

WunderPhotos

Upload Photos

1,891,571 photos uploaded!

WunderBlog® & News

Nearby

Air Quality

  Air Quality AQ Index Pollutant
Not available.

Snow Depth

Station Depth Elevation

Earthquake Activity

City Distance Mag. Time & Date
Minimum magnitude displayed is 2.5.

Coastal Water Temperatures

Place Temperature

Stations

Nearby Weather Stations

Station Location Temp. Windchill Dew Point Humidity Wind Precip. Elev Updated Type
                   

Watches & Warnings

There are currently no watches in effect.